AB, Nunavut

2:32 PM CST on January 16, 2017 (GMT -0600)
Eureka

Weather History for CWEU - September, 2013

Change the Weather History Date:

Saturday, September 28, 2013

  Actual Average Record
Temperature  
Mean Temperature 14 °F -  
Max Temperature 22 °F 1 °F 51 °F (2006)
Min Temperature 5 °F -13 °F -14 °F (1997)
Degree Days  
Heating Degree Days 51    
Moisture  
Dew Point 16 °F    
Average Humidity 92    
Maximum Humidity 100    
Minimum Humidity 84    
Precipitation  
Precipitation 0.00 in 0.01 in - ()
Sea Level Pressure  
Sea Level Pressure 30.11 in    
Wind  
Wind Speed 1 mph ()    
Max Wind Speed 6 mph    
Max Gust Speed -    
Visibility 15.0 miles    
Events      
Averages and records for this station are not official NWS values.
T = Trace of Precipitation, MM = Missing Value Source: Averaged Metar Reports

Daily Weather History Graph

Daily Weather History Graph

Search for Another Location

Airport or City:

Trip Planner

Search our weather history database for the weather conditions in past years. The results will help you decide how hot, cold, wet, or windy it might be!

Date:

Astronomy

Sep. 28, 2013 Rise Set
Actual Time 7:05 AM CDT 5:59 PM CDT
Civil Twilight 5:03 AM CDT 7:59 PM CDT
Nautical Twilight 1:09 AM CDT 11:23 PM CDT
Astronomical Twilight Sun does not rise Sun does not rise
Moon No Moon Rise No Moon Set
Length of Visible Light 14h 56m
Length of Day
10h 54m
Waning Crescent, 36% of the Moon is Illuminated
Sep 28
Waning Crescent
Oct 4
New
Oct 11
First Quarter
Oct 18
Full
Oct 26
Last Quarter

Hourly Weather History & Observations

Time (CDT) Temp. Windchill Dew Point Humidity Pressure Visibility Wind Dir Wind Speed Gust Speed Precip Events Conditions
12:00 AM 23.0 °F 17.0 °F 21.2 °F 93% 30.09 in 15.0 mi SSW 4.6 mph - N/A   Overcast
1:00 AM 24 °F - 21 °F 84% 30.11 in 15 mi Calm Calm - -   Overcast
1:00 AM 24.8 °F - 21.2 °F 86% 30.11 in 15.0 mi Calm Calm - N/A   Overcast
2:00 AM 23.0 °F - 21.2 °F 93% 30.11 in 15.0 mi NW 2.3 mph - N/A   Overcast
3:00 AM 21.2 °F - 19.4 °F 93% 30.12 in 15.0 mi Calm Calm - N/A   Mostly Cloudy
4:00 AM 21.2 °F - 19.4 °F 93% 30.13 in 15.0 mi Calm Calm - N/A   Mostly Cloudy
5:00 AM 23.0 °F - 19.4 °F 86% 30.13 in 15.0 mi Calm Calm - N/A   Mostly Cloudy
6:00 AM 23.0 °F - 21.2 °F 93% 30.14 in 15.0 mi Calm Calm - N/A   Mostly Cloudy
7:00 AM 22 °F - 20 °F 90% 30.14 in 15 mi Calm Calm - -   Mostly Cloudy
7:00 AM 23.0 °F - 21.2 °F 93% 30.14 in 15.0 mi Calm Calm - N/A   Mostly Cloudy
7:52 AM - - - N/A% - 15.0 mi Calm Calm - N/A   Mostly Cloudy
8:00 AM 23.0 °F - 19.4 °F 86% 30.14 in 15.0 mi Calm Calm - N/A   Mostly Cloudy
9:00 AM 23.0 °F - 19.4 °F 86% 30.14 in 15.0 mi Calm Calm - N/A   Mostly Cloudy
10:00 AM 21.2 °F - 19.4 °F 93% 30.13 in 15.0 mi Calm Calm - N/A   Mostly Cloudy
11:00 AM 21.2 °F - 19.4 °F 93% 30.12 in 15.0 mi Calm Calm - N/A   Mostly Cloudy
12:00 PM 21.2 °F 16.4 °F 19.4 °F 93% 30.12 in 15.0 mi South 3.5 mph - N/A   Mostly Cloudy
1:00 PM 21 °F - 20 °F 92% 30.11 in 15 mi WSW 4.6 mph - -   Mostly Cloudy
1:00 PM 21.2 °F 13.6 °F 19.4 °F 93% 30.11 in 15.0 mi WSW 5.8 mph - N/A   Mostly Cloudy
2:00 PM 19.4 °F - 19.4 °F 100% 30.12 in 15.0 mi Calm Calm - N/A   Mostly Cloudy
3:00 PM 17.6 °F - 15.8 °F 93% 30.12 in 15.0 mi Calm Calm - N/A   Mostly Cloudy
4:00 PM 14.0 °F 8.2 °F 12.2 °F 93% 30.12 in 15.0 mi WNW 3.5 mph - N/A   Scattered Clouds
5:00 PM 12.2 °F 6.1 °F 12.2 °F 100% 30.11 in 15.0 mi West 3.5 mph - N/A   Mostly Cloudy
6:00 PM 12.2 °F - 8.6 °F 85% 30.10 in 15.0 mi Calm Calm - N/A   Mostly Cloudy
7:00 PM 11 °F - 10 °F 92% 30.09 in 15 mi Calm Calm - -   Scattered Clouds
7:00 PM 12.2 °F - 10.4 °F 92% 30.09 in 15.0 mi ENE 2.3 mph - N/A   Partly Cloudy
8:00 PM 6.8 °F - 5.0 °F 92% 30.08 in 15.0 mi South 2.3 mph - N/A   Scattered Clouds
9:00 PM 8.6 °F - 6.8 °F 92% 30.08 in 15.0 mi Calm Calm - N/A   Scattered Clouds
10:00 PM 6.8 °F - 5.0 °F 92% 30.06 in 15.0 mi South 2.3 mph - N/A   Partly Cloudy
11:00 PM 5.0 °F - 3.2 °F 92% 30.05 in 15.0 mi East 2.3 mph - N/A   Partly Cloudy